Wind_Speed
35 36 35 34 34 35 35 35 35 34 34 34 34 34 34 35 35 35 36 36 37 37 37 37 37 36 36 36 36 35 35 35 35 35 35 35 35 35 35 34 35 35 35
35 35 35 35 35 35 36 36 36 36 35 35 35 36 36 36 36 37 37 37 38 38 39 39 39 38 38 38 37 37 36 37 36 37 37 36 36 36 36 35 36 36 36
35 36 36 36 36 37 37 37 37 37 37 37 37 38 38 37 37 38 37 37 38 39 40 40 40 40 39 39 39 39 38 38 38 38 38 38 38 38 37 37 37 37 36
36 37 37 37 37 37 38 38 38 39 39 39 39 39 39 38 38 38 38 38 38 38 40 40 40 40 40 40 40 40 40 40 40 40 39 39 39 39 39 39 39 38 38
37 37 38 38 38 38 38 38 38 39 39 39 40 40 40 40 40 39 39 39 39 39 40 40 41 41 41 41 41 42 42 41 41 41 41 41 40 40 41 40 40 40 39
39 38 38 39 40 39 39 39 39 40 40 41 41 41 41 41 41 41 41 41 41 41 41 41 41 41 41 42 42 43 43 43 43 43 43 42 42 42 41 41 41 40 40
39 39 39 40 40 40 40 40 40 40 40 41 41 41 42 42 42 42 43 43 43 43 43 43 43 43 43 44 44 44 44 44 44 44 43 43 43 44 43 43 43 42 41
38 38 38 39 40 40 41 40 40 40 41 41 41 41 42 43 43 44 44 45 45 44 44 44 44 44 44 45 45 45 45 45 45 45 45 45 45 45 45 45 44 44 43
38 38 38 38 39 39 39 39 40 40 41 42 42 43 43 43 44 45 45 46 46 46 46 45 45 46 46 46 46 46 46 46 46 47 47 47 47 47 46 46 45 45 44
38 38 38 38 38 39 40 40 41 41 41 42 42 43 43 44 44 44 45 45 46 46 46 47 47 47 47 48 48 47 47 47 47 48 48 48 48 48 47 46 46 46 47
38 38 39 40 40 40 40 40 41 42 42 42 43 43 44 44 45 44 44 45 45 46 47 47 48 48 49 48 49 49 49 48 48 48 49 49 49 49 49 49 48 48 47
38 39 39 40 40 41 41 41 42 42 42 43 43 44 44 45 44 45 45 44 44 44 45 46 46 47 48 49 49 49 48 47 47 47 47 47 48 49 49 49 49 48 48
39 40 40 40 40 40 40 41 42 42 43 43 43 43 44 44 45 45 45 44 44 44 44 44 44 45 46 47 47 46 46 46 45 45 46 46 46 47 47 47 48 47 47
40 41 41 41 41 40 41 41 41 41 42 42 43 43 43 43 44 44 44 44 44 44 44 44 43 44 44 45 46 46 46 45 46 46 46 46 46 47 47 47 46 46 45
40 40 41 41 41 41 41 40 40 39 39 40 41 41 42 42 43 43 44 44 44 44 45 45 44 44 43 44 44 44 45 45 45 46 46 46 45 45 46 45 44 44 44
39 40 40 40 40 40 40 40 40 39 40 39 39 40 40 41 41 42 43 44 44 44 43 43 43 44 43 43 43 43 43 43 44 45 45 45 45 44 44 44 43 43 43
39 39 39 39 38 39 39 40 40 40 40 40 40 39 39 40 40 41 42 42 43 43 42 42 42 42 42 42 42 41 41 41 42 43 43 43 43 43 43 42 42 42 43
38 38 39 38 38 39 39 40 40 40 40 40 39 39 39 39 39 40 40 41 41 41 41 41 41 41 41 41 42 41 41 41 41 41 41 41 42 42 42 41 41 40 41
36 37 38 38 38 39 39 39 39 39 39 39 39 39 40 40 39 40 40 40 40 40 40 40 40 40 40 40 40 40 40 40 40 40 40 40 40 40 40 40 39 39 40
36 37 37 37 38 38 38 38 39 39 40 39 39 40 40 41 41 41 41 40 40 40 40 40 40 40 40 39 39 39 39 39 39 39 38 38 39 38 38 38 38 38 38
36 36 37 37 38 38 38 38 39 40 40 40 40 40 41 41 41 40 40 39 39 40 40 40 39 39 38 38 38 37 37 37 38 38 37 38 38 37 37 37 37 37 37
35 36 36 36 37 38 38 39 39 39 40 40 40 40 40 40 39 39 39 39 39 39 39 39 38 38 37 37 37 37 37 37 36 36 36 36 36 35 35 35 36 37 36
35 35 35 36 37 38 38 38 39 39 39 38 38 38 38 38 37 37 37 37 37 37 36 37 37 37 37 37 37 36 36 36 36 36 35 34 35 35 35 34 34 35 35
35 35 36 37 37 37 37 37 37 37 36 36 36 36 36 36 36 35 35 35 35 35 35 35 36 36 36 36 36 35 35 35 35 35 35 33 33 34 34 34 34 34 34
35 36 36 36 36 36 35 35 35 35 35 34 34 34 34 34 34 33 33 33 33 34 34 35 36 35 34 34 34 34 33 33 33 34 35 34 33 32 33 33 33 33 33
35 36 35 35 36 35 35 35 35 35 34 33 33 33 33 32 32 32 32 32 33 34 34 35 35 34 33 33 33 32 32 32 32 32 32 32 32 31 31 31 32 32 32
Wind_Direction
258 258 259 260 261 262 263 264 265 266 267 267 267 267 267 267 268 269 269 269 269 269 270 270 271 271 272 272 272 272 272 272 273 273 273 274 274 275 275 275 276 276 277
260 260 260 261 262 263 264 264 265 266 266 267 267 267 267 268 269 270 270 270 270 270 270 271 270 271 271 271 271 271 271 271 273 273 272 273 274 274 274 274 276 277 277
261 262 263 263 264 265 266 265 266 266 266 266 266 267 267 268 269 270 270 271 271 271 271 271 271 271 271 270 270 270 270 271 271 271 271 272 273 274 273 274 275 276 276
262 263 264 265 265 267 267 267 266 267 267 266 267 268 268 268 269 270 270 271 272 273 272 271 271 271 271 270 270 269 270 270 270 270 271 271 272 273 274 275 275 275 275
263 264 264 266 266 267 268 269 269 268 267 267 267 267 269 269 269 269 270 272 273 274 274 273 271 270 270 270 270 270 270 270 270 269 270 270 271 273 273 274 274 274 274
264 266 266 266 266 267 268 268 269 269 268 269 268 269 270 270 269 270 271 272 273 273 274 274 273 271 271 271 270 270 270 270 270 270 269 269 270 271 273 273 273 273 273
264 265 266 266 267 268 268 268 268 269 269 269 270 270 271 271 270 271 271 272 273 273 273 273 273 272 272 272 272 271 271 271 270 270 269 269 270 271 272 272 272 272 273
264 264 266 267 268 268 268 268 268 269 269 270 270 271 271 270 270 271 272 272 273 273 273 273 272 272 272 273 272 272 271 271 270 270 269 269 270 271 271 271 272 272 273
264 265 266 269 269 268 268 269 270 270 270 270 271 271 271 270 270 271 272 272 272 273 272 273 273 272 272 272 272 272 271 271 270 270 269 269 270 271 271 271 271 272 271
265 266 267 268 270 269 269 270 271 272 272 272 272 273 273 273 272 272 272 272 272 272 273 272 272 272 272 272 272 272 272 272 271 270 270 269 269 270 270 270 271 271 271
266 267 269 269 269 270 271 272 272 272 272 272 273 274 274 274 274 274 273 272 272 273 273 272 271 271 272 272 272 271 272 272 271 271 270 269 269 269 269 270 271 271 270
265 267 269 271 270 271 272 272 273 273 273 273 274 274 274 275 274 274 274 273 272 273 273 273 273 272 272 272 272 271 271 272 271 271 271 271 270 270 270 270 271 270 269
266 269 270 270 271 271 272 272 273 273 273 274 274 275 275 275 274 274 274 273 272 273 274 275 275 274 274 273 272 271 271 271 271 270 270 270 271 270 270 270 271 270 268
267 269 270 269 270 271 272 273 274 274 274 274 275 276 276 276 275 275 274 273 273 273 274 275 276 276 275 274 273 271 271 271 271 270 271 271 272 271 271 272 270 269 266
267 269 269 269 270 271 272 273 274 274 274 274 275 275 276 276 276 276 275 274 275 275 275 275 275 275 276 276 274 272 272 271 271 270 271 271 272 272 272 273 270 267 266
268 269 269 269 270 270 271 272 273 273 273 275 277 277 277 278 278 275 275 276 276 276 275 275 274 275 276 276 275 273 271 271 272 271 271 272 272 273 273 272 270 267 267
269 270 269 269 270 271 271 272 272 273 274 276 276 277 278 279 279 277 276 276 276 276 276 276 275 275 276 276 275 273 272 272 273 274 274 274 273 273 272 271 270 268 267
269 270 270 270 270 271 272 272 272 272 274 275 277 277 279 281 280 278 277 276 276 276 276 275 275 276 276 276 276 274 273 273 274 275 275 275 275 274 273 273 272 270 269
269 270 270 270 271 273 273 273 273 273 274 276 277 278 279 281 280 279 278 277 276 276 276 275 274 275 277 277 277 276 275 274 275 275 275 275 274 274 274 273 272 271 271
269 270 270 270 271 272 273 274 274 274 275 276 276 278 279 280 280 279 278 277 275 275 275 275 274 275 276 278 278 276 276 276 276 276 275 274 274 275 273 273 273 272 271
271 271 271 271 271 273 274 275 275 275 276 276 277 278 279 280 280 278 277 277 276 276 275 275 275 276 276 276 276 276 276 276 276 274 273 273 274 274 272 271 272 273 272
272 273 272 273 274 275 275 277 277 277 276 276 277 278 279 280 280 278 277 276 276 276 276 275 275 275 276 277 276 275 274 274 274 273 274 274 273 273 273 272 273 272 272
272 274 274 274 275 275 276 277 277 278 277 276 277 278 279 280 279 278 276 276 276 275 275 276 275 275 276 275 276 275 275 275 275 273 273 274 274 273 273 273 274 273 273
273 274 275 275 276 276 275 277 278 277 277 277 277 278 280 280 280 278 276 275 274 274 275 275 276 277 276 275 274 274 273 274 274 273 272 273 273 272 272 272 272 273 273
274 275 276 276 276 276 275 276 277 277 276 276 278 279 280 280 279 277 276 274 273 274 275 275 277 277 276 274 274 273 272 273 273 272 271 272 271 270 271 271 271 271 273
275 276 277 276 276 276 275 275 276 277 276 277 279 280 279 279 278 277 276 275 274 275 275 275 274 275 275 274 273 273 274 274 274 274 272 272 271 269 268 269 269 271 272
Height
5785 5785 5786 5786 5787 5787 5788 5788 5788 5788 5788 5787 5787 5787 5787 5786 5786 5786 5786 5786 5786 5786 5786 5786 5786 5785 5785 5785 5785 5784 5784 5784 5783 5782 5782 5781 5781 5780 5780 5779 5778 5777 5777
5777 5777 5778 5778 5779 5779 5780 5780 5780 5780 5780 5779 5779 5779 5779 5778 5778 5777 5777 5777 5777 5777 5777 5777 5777 5777 5777 5776 5776 5776 5776 5775 5775 5774 5773 5773 5772 5772 5771 5771 5770 5769 5768
5769 5770 5770 5771 5771 5771 5771 5771 5771 5771 5771 5771 5770 5770 5770 5770 5769 5768 5768 5768 5768 5767 5767 5767 5767 5767 5767 5767 5767 5767 5767 5766 5766 5765 5764 5764 5764 5763 5763 5762 5761 5760 5760
5761 5762 5762 5762 5762 5762 5762 5763 5762 5762 5762 5762 5761 5761 5761 5760 5760 5759 5759 5759 5758 5758 5757 5757 5757 5757 5757 5757 5757 5757 5757 5757 5756 5755 5755 5755 5755 5754 5754 5753 5752 5751 5751
5752 5753 5754 5754 5754 5754 5754 5754 5754 5753 5753 5752 5752 5751 5751 5751 5750 5750 5750 5749 5749 5748 5748 5747 5747 5747 5747 5747 5747 5747 5747 5746 5746 5746 5745 5745 5745 5744 5744 5743 5742 5742 5741
5744 5744 5745 5745 5745 5745 5745 5745 5744 5743 5743 5742 5742 5742 5741 5741 5740 5740 5740 5739 5739 5739 5738 5737 5737 5737 5737 5737 5737 5736 5736 5736 5735 5735 5735 5735 5735 5734 5733 5733 5732 5732 5731
5735 5735 5736 5736 5735 5735 5735 5735 5734 5734 5733 5733 5732 5732 5731 5731 5730 5730 5730 5729 5729 5728 5728 5727 5727 5726 5726 5726 5726 5726 5725 5725 5724 5724 5724 5724 5724 5723 5723 5722 5722 5721 5721
5725 5726 5726 5726 5726 5726 5725 5725 5725 5724 5724 5723 5723 5722 5722 5721 5720 5720 5719 5719 5718 5718 5717 5717 5716 5716 5716 5715 5715 5714 5714 5713 5713 5713 5713 5713 5712 5712 5712 5711 5711 5710 5710
5716 5717 5717 5717 5717 5716 5716 5715 5715 5714 5714 5713 5712 5712 5711 5711 5710 5710 5709 5708 5707 5707 5706 5706 5705 5705 5705 5704 5704 5703 5703 5702 5701 5701 5701 5701 5701 5700 5700 5700 5699 5699 5698
5707 5707 5707 5707 5707 5707 5706 5705 5705 5704 5703 5703 5702 5701 5701 5700 5700 5699 5699 5698 5697 5696 5695 5694 5694 5693 5693 5693 5692 5692 5691 5690 5689 5689 5688 5688 5688 5688 5687 5687 5687 5687 5686
5698 5698 5698 5698 5697 5697 5696 5696 5695 5694 5693 5692 5692 5691 5690 5689 5688 5688 5688 5687 5686 5684 5683 5682 5682 5681 5681 5680 5680 5679 5678 5677 5677 5676 5675 5675 5675 5675 5675 5675 5674 5674 5674
5688 5688 5688 5688 5687 5687 5686 5686 5685 5684 5683 5682 5681 5680 5679 5678 5677 5676 5676 5676 5675 5673 5672 5671 5669 5669 5668 5668 5667 5666 5665 5665 5664 5663 5662 5662 5662 5662 5662 5662 5661 5661 5661
5679 5679 5678 5678 5677 5677 5676 5675 5674 5673 5672 5671 5670 5669 5668 5667 5666 5665 5664 5664 5663 5662 5661 5659 5658 5656 5656 5655 5654 5654 5653 5652 5652 5651 5651 5650 5650 5649 5649 5649 5648 5648 5648
5669 5668 5668 5667 5667 5666 5665 5665 5664 5663 5662 5661 5660 5658 5657 5656 5655 5653 5652 5652 5652 5651 5650 5649 5646 5645 5643 5643 5642 5641 5641 5640 5640 5639 5639 5638 5638 5637 5637 5636 5635 5635 5635
5658 5658 5657 5657 5656 5656 5655 5654 5654 5653 5651 5650 5649 5647 5646 5645 5643 5642 5641 5640 5640 5639 5639 5637 5635 5633 5631 5631 5630 5629 5629 5628 5627 5627 5626 5626 5626 5625 5624 5623 5623 5622 5623
5648 5647 5647 5646 5646 5645 5644 5643 5643 5642 5641 5639 5638 5637 5635 5634 5632 5630 5629 5628 5627 5626 5626 5625 5623 5621 5620 5619 5618 5617 5617 5616 5616 5615 5615 5614 5613 5612 5611 5610 5610 5610 5610
5637 5637 5636 5636 5635 5635 5634 5633 5632 5631 5630 5629 5627 5626 5624 5623 5621 5619 5617 5616 5615 5614 5613 5613 5611 5610 5608 5607 5606 5606 5605 5604 5604 5603 5603 5602 5601 5600 5599 5598 5598 5598 5598
5626 5626 5625 5625 5624 5624 5623 5622 5621 5620 5619 5618 5617 5615 5614 5612 5610 5608 5606 5605 5603 5602 5602 5602 5600 5598 5597 5596 5595 5595 5594 5593 5592 5592 5591 5590 5589 5588 5588 5587 5586 5586 5586
5616 5615 5614 5614 5613 5613 5612 5611 5610 5609 5608 5607 5606 5604 5603 5601 5599 5597 5595 5594 5592 5591 5590 5590 5589 5588 5586 5585 5584 5583 5583 5582 5581 5580 5579 5579 5578 5577 5576 5576 5575 5575 5575
5605 5604 5603 5603 5602 5602 5601 5600 5599 5598 5597 5596 5595 5593 5592 5590 5588 5586 5584 5583 5581 5580 5579 5578 5578 5577 5576 5574 5573 5573 5572 5571 5570 5570 5569 5568 5567 5566 5566 5565 5565 5564 5564
5595 5594 5593 5592 5591 5591 5590 5589 5588 5587 5586 5585 5583 5582 5580 5578 5576 5574 5573 5571 5570 5569 5568 5567 5567 5566 5565 5564 5563 5562 5562 5561 5560 5559 5558 5558 5557 5556 5555 5555 5554 5553 5553
5585 5584 5583 5582 5581 5580 5579 5578 5576 5575 5574 5573 5572 5570 5569 5566 5564 5563 5562 5561 5559 5558 5557 5556 5556 5555 5555 5554 5553 5552 5551 5551 5551 5550 5548 5547 5546 5546 5545 5545 5544 5543 5542
5575 5574 5573 5572 5571 5570 5568 5566 5565 5564 5563 5562 5561 5559 5557 5555 5553 5552 5551 5549 5548 5547 5547 5546 5545 5545 5544 5544 5543 5542 5541 5540 5540 5539 5538 5537 5536 5536 5535 5534 5533 5533 5532
5565 5564 5563 5561 5560 5559 5557 5555 5554 5553 5552 5551 5550 5548 5547 5545 5543 5541 5540 5539 5538 5537 5536 5535 5535 5535 5533 5532 5532 5531 5530 5530 5529 5529 5528 5527 5526 5525 5524 5524 5523 5523 5522
5554 5554 5552 5551 5550 5548 5547 5545 5544 5543 5542 5541 5539 5538 5536 5534 5533 5531 5530 5529 5528 5527 5525 5524 5524 5523 5522 5521 5521 5520 5520 5519 5519 5519 5517 5517 5516 5515 5515 5514 5513 5512 5512
5544 5543 5542 5541 5539 5538 5537 5535 5534 5533 5532 5531 5529 5528 5526 5524 5522 5520 5519 5518 5518 5517 5515 5514 5513 5512 5512 5511 5510 5510 5510 5509 5509 5509 5508 5507 5506 5505 5506 5505 5504 5503 5502